User: anonymous   Login
Location: Oshawa
(43.9000°N, 78.8670°W)
Time: 14:10:13
(UTC-04:00)
Language:

Cosmos 1408 Rocket - Orbit

View from above orbital plane
View from above orbital plane
View from above satellite
View from above satellite

Ground track
Ground track

The orbit data is extracted from the following two-line orbital elements,

1 13553U 82092B   17080.70323758 +.00000072 +00000-0 +57434-5 0  9996
2 13553 082.5688 315.5940 0020821 337.9566 078.4773 14.84110594842978
Epoch (UTC): 21 March 2017 16:52:39
Eccentricity: 0.0020821
inclination: 82.5688°
perigee height: 602 km
apogee height: 631 km
right ascension of ascending node: 315.5940°
argument of perigee: 337.9566°
revolutions per day: 14.84110594
mean anomaly at epoch: 78.4773°
orbit number at epoch: 84297

The dashed part of the orbit path shows where the satellite is in the earth's shadow,  

DLR